Regional Weather Roundup
Issued by NWS

Home | Current Version | Previous Version | Text Only | Print | Product List | Glossary On
Versions: 1 2 3 4 5 6 7 8 9 10 11 12 13 14 15 16 17 18 19 20 21 22 23 24 25 26 27 28 29 30 31 32 33 34 35 36 37 38 39 40 41 42 43 44 45 46 47 48 49 50
000
ASUS43 KLMK 210710
RWRKY
KENTUCKY REGIONAL WEATHER ROUNDUP
NATIONAL WEATHER SERVICE LOUISVILLE KY
200 AM EST WED FEB 21 2018

NOTE "FAIR" INDICATES FEW OR NO CLOUDS BELOW 12,000 FEET
WITH NO SIGNIFICANT WEATHER AND/OR OBSTRUCTIONS TO VISIBILITY.

KYZ001>023-026-027-061>063-070>075-210800-
WESTERN AND SOUTH CENTRAL KENTUCKY

CITY           SKY/WX    TMP DP  RH WIND       PRES   REMARKS
PADUCAH        HVY RAIN  54  50  86 NW16G28   30.16R FOG
HENDERSON      MOCLDY    57  52  82 NW30G38   30.12R
OWENSBORO      FAIR      69  61  75 S20       30.07R
HOPKINSVILLE   FAIR      72  60  65 S17G28    30.12R
BOWLING GREEN  FAIR      72  63  73 S20G37    30.15R
GLASGOW        FAIR      68  59  73 S10       30.18R
$$

KYZ024-025-028>034-038-045-046-053-210800-
NORTH CENTRAL KENTUCKY

CITY           SKY/WX    TMP DP  RH WIND       PRES   REMARKS
LOUISVILLE/SDF MOCLDY    71  59  65 S16G28    30.09S
LOUISVILLE/LOU FAIR      70  61  73 S15G29    30.10S
FORT KNOX      FAIR      67  59  73 S18G24    30.11S
$$

KYZ035>037-039>044-047>052-055>060-089>105-210800-
NORTHEAST KENTUCKY

CITY           SKY/WX    TMP DP  RH WIND       PRES   REMARKS
LEXINGTON      FAIR      68  58  70 S22G33    30.16F
COVINGTON      FAIR      67  59  75 S16G26    30.11S
FRANKFORT      FAIR      67  56  67 S13G21    30.13F
$$

KYZ054-064>069-076>088-106>120-210800-
SOUTHEAST KENTUCKY

CITY           SKY/WX    TMP DP  RH WIND       PRES   REMARKS
JACKSON        CLOUDY    67  51  56 VRB5      30.26S
LONDON         CLOUDY    68  57  68 S12       30.25F
SOMERSET       FAIR      68  57  68 MISG      30.25S
MIDDLESBORO    MOCLDY    63  55  77 CALM      30.30F
MONTICELLO     NOT AVBL
$$





USA.gov is the U.S. government's official web portal to all federal, state and local government web resources and services.